Location: Ełk
(53.8214°N, 22.3622°E)
Time: 01:39:29
(UTC+01:00)

ISS - Pass Details

Date: 01 February 2019
Orbit: 403 x 411 km, 51.6° (Epoch: 17 February)

Event Time Altitude Azimuth Distance (km) Brightness Sun altitude
Rises 18:56:33 0° 275° (W) 2,340 1.5 -24.3°
Reaches altitude 10° 18:58:41 10° 269° (W) 1,479 0.1 -24.6°
Enters shadow 19:00:40 29° 247° (WSW) 777 -1.9 -24.9°
